TimeCDT,TemperatureF,Dew PointF,Humidity,Sea Level PressureIn,VisibilityMPH,Wind Direction,Wind SpeedMPH,Gust SpeedMPH,PrecipitationIn,Events,Conditions,WindDirDegrees,DateUTC
12:15 AM,74.8,74.8,100,29.90,10.0,SSE,5.8,-,N/A,,Clear,150,2012-10-21 05:15:00
12:35 AM,74.7,74.7,100,29.89,10.0,SSE,4.6,-,N/A,,Clear,150,2012-10-21 05:35:00
12:55 AM,74.5,74.5,100,29.90,10.0,SSE,5.8,-,N/A,,Clear,150,2012-10-21 05:55:00
1:15 AM,74.3,74.3,100,29.90,10.0,SSE,5.8,-,N/A,,Clear,150,2012-10-21 06:15:00
1:35 AM,74.3,74.3,100,29.90,10.0,SSE,4.6,-,N/A,,Scattered Clouds,150,2012-10-21 06:35:00
1:55 AM,74.5,74.5,100,29.89,10.0,SSE,4.6,-,N/A,,Mostly Cloudy,150,2012-10-21 06:55:00
2:15 AM,74.5,74.5,100,29.89,10.0,SSE,4.6,-,N/A,,Mostly Cloudy,150,2012-10-21 07:15:00
2:35 AM,74.3,74.3,100,29.90,10.0,SSE,4.6,-,N/A,,Mostly Cloudy,150,2012-10-21 07:35:00
2:55 AM,74.5,74.5,100,29.90,10.0,SSE,4.6,-,N/A,,Mostly Cloudy,150,2012-10-21 07:55:00
3:15 AM,74.8,74.8,100,29.89,10.0,SSE,4.6,-,N/A,,Mostly Cloudy,150,2012-10-21 08:15:00
3:35 AM,75.6,75.6,100,29.89,10.0,SSE,5.8,-,N/A,,Mostly Cloudy,160,2012-10-21 08:35:00
3:55 AM,76.1,76.1,100,29.89,10.0,SSE,5.8,-,N/A,,Mostly Cloudy,150,2012-10-21 08:55:00
4:15 AM,75.9,75.9,100,29.90,10.0,SSE,5.8,-,N/A,,Scattered Clouds,150,2012-10-21 09:15:00
4:35 AM,75.6,75.6,100,29.90,10.0,SSE,5.8,-,N/A,,Scattered Clouds,150,2012-10-21 09:35:00
4:55 AM,75.4,75.4,100,29.90,10.0,SE,5.8,-,N/A,,Clear,140,2012-10-21 09:55:00
5:15 AM,75.0,75.0,100,29.90,10.0,SE,5.8,-,N/A,,Clear,140,2012-10-21 10:15:00
5:35 AM,75.0,75.0,100,29.91,10.0,SE,6.9,-,N/A,,Clear,140,2012-10-21 10:35:00
5:55 AM,75.2,75.2,100,29.91,10.0,SE,5.8,-,N/A,,Clear,140,2012-10-21 10:55:00
6:15 AM,75.2,75.2,100,29.92,10.0,SE,5.8,-,N/A,,Clear,140,2012-10-21 11:15:00
6:35 AM,75.2,75.2,100,29.92,10.0,SE,5.8,-,N/A,,Mostly Cloudy,140,2012-10-21 11:35:00
6:55 AM,75.4,75.4,100,29.92,10.0,SE,6.9,-,N/A,,Scattered Clouds,140,2012-10-21 11:55:00
7:15 AM,75.4,75.4,100,29.93,10.0,SE,6.9,-,N/A,,Clear,140,2012-10-21 12:15:00
7:35 AM,75.6,75.6,100,29.93,10.0,SE,6.9,-,N/A,,Clear,140,2012-10-21 12:35:00
7:55 AM,76.1,76.1,100,29.94,10.0,SE,8.1,-,N/A,,Clear,140,2012-10-21 12:55:00
8:15 AM,76.6,76.6,100,29.94,10.0,SE,8.1,-,N/A,,Clear,140,2012-10-21 13:15:00
8:35 AM,77.5,77.5,100,29.95,10.0,SE,6.9,-,N/A,,Clear,140,2012-10-21 13:35:00
8:55 AM,79.2,79.0,99,29.96,10.0,SE,6.9,-,N/A,,Clear,140,2012-10-21 13:55:00
9:15 AM,80.2,79.5,98,29.97,10.0,SE,8.1,-,N/A,,Clear,140,2012-10-21 14:15:00
9:35 AM,82.4,73.4,74,29.97,10.0,SSE,12.7,17.3,N/A,,Clear,150,2012-10-21 14:35:00
9:55 AM,83.7,74.5,74,29.97,10.0,SSE,12.7,20.7,N/A,,Scattered Clouds,150,2012-10-21 14:55:00
10:15 AM,84.4,73.8,70,29.98,10.0,SSE,16.1,-,N/A,,Mostly Cloudy,160,2012-10-21 15:15:00
10:35 AM,84.2,71.6,66,29.98,10.0,SSE,16.1,19.6,N/A,,Mostly Cloudy,160,2012-10-21 15:35:00
10:55 AM,85.5,73.2,67,29.98,10.0,SSE,15.0,18.4,N/A,,Scattered Clouds,150,2012-10-21 15:55:00
11:15 AM,86.9,73.4,64,29.98,10.0,SSE,15.0,19.6,N/A,,Mostly Cloudy,150,2012-10-21 16:15:00
11:35 AM,87.8,73.4,62,29.98,10.0,SE,12.7,19.6,N/A,,Scattered Clouds,140,2012-10-21 16:35:00
11:55 AM,87.8,71.6,58,29.98,10.0,SSE,13.8,19.6,N/A,,Scattered Clouds,150,2012-10-21 16:55:00
12:15 PM,87.8,73.2,62,29.98,10.0,SE,13.8,21.9,N/A,,Mostly Cloudy,140,2012-10-21 17:15:00
12:35 PM,88.2,73.2,61,29.97,10.0,SSE,15.0,19.6,N/A,,Mostly Cloudy,160,2012-10-21 17:35:00
12:55 PM,88.0,73.4,62,29.97,10.0,SSE,13.8,18.4,N/A,,Scattered Clouds,150,2012-10-21 17:55:00
1:15 PM,87.1,73.0,63,29.96,10.0,SSE,13.8,20.7,N/A,,Scattered Clouds,150,2012-10-21 18:15:00
1:35 PM,88.0,73.2,61,29.96,10.0,SSE,13.8,19.6,N/A,,Mostly Cloudy,160,2012-10-21 18:35:00
1:55 PM,88.7,73.0,60,29.95,10.0,SSE,13.8,20.7,N/A,,Mostly Cloudy,150,2012-10-21 18:55:00
2:15 PM,88.3,72.3,59,29.94,10.0,South,13.8,20.7,N/A,,Scattered Clouds,170,2012-10-21 19:15:00
2:35 PM,87.6,72.1,60,29.93,10.0,SSE,13.8,18.4,N/A,,Scattered Clouds,150,2012-10-21 19:35:00
2:55 PM,87.8,72.1,60,29.93,10.0,SSE,13.8,23.0,N/A,,Mostly Cloudy,160,2012-10-21 19:55:00
3:15 PM,86.0,71.6,62,29.93,10.0,SSE,11.5,-,N/A,,Mostly Cloudy,150,2012-10-21 20:15:00
3:35 PM,87.6,71.6,59,29.93,10.0,SE,10.4,20.7,N/A,,Mostly Cloudy,140,2012-10-21 20:35:00
3:55 PM,88.2,70.7,56,29.93,10.0,SSE,16.1,-,N/A,,Scattered Clouds,160,2012-10-21 20:55:00
4:15 PM,87.1,70.0,57,29.93,10.0,South,13.8,17.3,N/A,,Clear,170,2012-10-21 21:15:00
4:35 PM,86.5,69.8,57,29.93,10.0,SSE,13.8,19.6,N/A,,Scattered Clouds,160,2012-10-21 21:35:00
4:55 PM,86.0,69.8,58,29.93,10.0,SSE,11.5,-,N/A,,Mostly Cloudy,150,2012-10-21 21:55:00
5:15 PM,84.2,69.8,62,29.93,10.0,SE,16.1,21.9,N/A,,Mostly Cloudy,140,2012-10-21 22:15:00
5:35 PM,84.6,70.9,63,29.93,10.0,SE,10.4,-,N/A,,Scattered Clouds,130,2012-10-21 22:35:00
5:55 PM,83.5,71.1,66,29.93,10.0,SE,12.7,-,N/A,,Clear,130,2012-10-21 22:55:00
6:15 PM,82.4,71.1,68,29.93,10.0,SE,11.5,17.3,N/A,,Clear,140,2012-10-21 23:15:00
6:35 PM,81.1,70.9,71,29.93,10.0,SE,11.5,16.1,N/A,,Clear,130,2012-10-21 23:35:00
6:55 PM,79.5,70.9,75,29.93,10.0,SE,8.1,-,N/A,,Clear,130,2012-10-21 23:55:00
7:15 PM,78.3,70.9,78,29.94,10.0,ESE,8.1,-,N/A,,Clear,120,2012-10-22 00:15:00
7:35 PM,77.5,71.4,81,29.94,10.0,ESE,6.9,-,N/A,,Clear,120,2012-10-22 00:35:00
7:55 PM,76.6,71.8,85,29.95,10.0,ESE,5.8,-,N/A,,Clear,120,2012-10-22 00:55:00
8:15 PM,75.7,73.4,92,29.95,10.0,ESE,5.8,-,N/A,,Clear,120,2012-10-22 01:15:00
8:35 PM,75.2,75.2,100,29.95,10.0,ESE,5.8,-,N/A,,Clear,120,2012-10-22 01:35:00
8:55 PM,74.8,74.8,100,29.95,10.0,ESE,5.8,-,N/A,,Clear,120,2012-10-22 01:55:00
9:15 PM,73.4,73.4,100,29.95,10.0,ESE,5.8,-,N/A,,Clear,120,2012-10-22 02:15:00
9:35 PM,75.0,75.0,100,29.96,10.0,ESE,6.9,-,N/A,,Clear,120,2012-10-22 02:35:00
9:55 PM,75.4,75.4,100,29.96,10.0,ESE,6.9,-,N/A,,Clear,120,2012-10-22 02:55:00
10:15 PM,75.7,75.7,100,29.97,10.0,ESE,6.9,-,N/A,,Clear,120,2012-10-22 03:15:00
10:35 PM,75.7,75.7,100,29.97,10.0,ESE,5.8,-,N/A,,Clear,120,2012-10-22 03:35:00
10:55 PM,75.2,75.2,100,29.97,10.0,ESE,6.9,-,N/A,,Clear,120,2012-10-22 03:55:00
11:15 PM,75.9,75.9,100,29.97,10.0,SE,6.9,-,N/A,,Scattered Clouds,130,2012-10-22 04:15:00
11:35 PM,76.1,76.1,100,29.96,10.0,ESE,5.8,-,N/A,,Scattered Clouds,120,2012-10-22 04:35:00
11:55 PM,76.1,76.1,100,29.96,10.0,SE,8.1,-,N/A,,Clear,130,2012-10-22 04:55:00